カタログに戻る

STARLINK-32200

運用中通信VLEO
NORAD 60258·PAYLOAD·🇺🇸 United States

打ち上げ Jul 27, 2024 から Cape Canaveral Space Force Station

Loading…

次のパス (今後24時間)

TLE

最新Source: CelesTrak SupGP

元期: Sep 14, 2026, 20:52 UTC

1 60258C 24131D   26257.86993056  .00051454  00000+0  15204-2 0  2579
2 60258  53.1571 252.0904 0001271  94.9329 344.0342 15.34361463    11

AllMySatでSTARLINK-32200をリアルタイム追跡

Download on the App Store